This demonstration page uses our WeatherBlox Daily Observations layout. Learn more.

Left ArrowRight Arrow

Hourly Observations for November 29, 2022

Temp ( °F °C ) Dew Point ( °F °C ) Humidity (%) Winds ( mph kmh ) Pressure ( in mb ) Visibility ( mi km ) Precip ( " mm )
12:54 am 00:54 Mostly Cloudy 43 6.1 31 -0.6 62 62 NNE 9 15 29.57 1001 10 16 0.00 0.00
1:54 am 01:54 Cloudy 43 6.1 31 -0.6 62 62 NNE 15 24 29.55 1001 10 16 0.00 0.00
2:34 am 02:34 Cloudy 42 5.6 28 -2.2 57 57 NNE 14 22 29.57 1001 10 16 0.00 0.00
2:54 am 02:54 Cloudy 41 5 27 -2.8 57 57 NNE 16 26 29.53 1000 10 16 0.00 0.00
3:54 am 03:54 Cloudy 39 3.9 26 -3.3 59 59 N 18 30 29.52 1000 10 16 0.00 0.00
4:54 am 04:54 Cloudy 38 3.3 26 -3.3 62 62 N 24 39 29.50 999 10 16 0.00 0.00
5:54 am 05:54 Cloudy with Light Wintry Mix 34 1.1 27 -2.8 75 75 N 25 41 29.52 1000 7 11 0.01 0.13
6:42 am 06:42 Windy with Snow Likely 32 0 28 -2.2 85 85 NNE 26 43 29.59 1002 4 6 0.01 0.13
6:54 am 06:54 Cloudy with Light Wintry Mix 32 0 27 -2.8 81 81 NNE 21 33 29.55 1001 7 11 0.01 0.13
7:44 am 07:44 Cloudy with Drizzle 31 -0.6 27 -2.8 85 85 N 22 35 29.63 1003 7 11 0.01 0.13
7:54 am 07:54 Cloudy with Drizzle 31 -0.6 28 -2.2 89 89 N 25 41 29.60 1002 6 10 0.01 0.13
8:54 am 08:54 Cloudy with Drizzle 31 -0.6 28 -2.2 89 89 N 35 56 29.63 1003 3 4 0.01 0.13
9:54 am 09:54 Cloudy with Mist and Fog 29 -1.7 24 -4.4 82 82 N 29 46 29.67 1005 4 6 0.01 0.13
10:12 am 10:12 Cloudy with Mist and Fog 28 -2.2 24 -4.4 85 85 NNW 29 46 29.74 1007 4 6 0.01 0.13
10:29 am 10:29 Cloudy with Haze 27 -2.8 22 -5.6 81 81 N 32 52 29.74 1007 5 8 0.01 0.13
10:54 am 10:54 Cloudy 28 -2.2 22 -5.6 77 77 NNW 24 39 29.71 1006 10 16 0.01 0.13
11:35 am 11:35 Cloudy 27 -2.8 21 -6.1 78 78 NNW 24 39 29.79 1009 10 16 0.00 0.00
11:54 am 11:54 Cloudy 27 -2.8 21 -6.1 78 78 N 23 37 29.76 1008 10 16 0.00 0.00
12:54 pm 12:54 Cloudy with Haze 26 -3.3 20 -6.7 77 77 NNW 24 39 29.79 1009 5 8 0.00 0.00
1:16 pm 13:16 Cloudy with Haze 27 -2.8 20 -6.7 74 74 NNW 25 41 29.85 1011 4 6 0.00 0.00
1:25 pm 13:25 Windy with Snow Likely 26 -3.3 20 -6.7 77 77 NNW 24 39 29.85 1011 3 4 0.01 0.13
1:54 pm 13:54 Cloudy with Light Snow 26 -3.3 20 -6.7 77 77 NNW 18 30 29.83 1010 4 6 0.01 0.13
2:03 pm 14:03 Windy with Snow Likely 26 -3.3 19 -7.2 74 74 NNW 24 39 29.89 1012 8 13 0.01 0.13
2:14 pm 14:14 Mostly Cloudy 27 -2.8 18 -7.8 68 68 NNW 28 44 29.88 1012 10 16 0.01 0.13
2:34 pm 14:34 Mostly Cloudy 27 -2.8 18 -7.8 68 68 NW 21 33 29.90 1013 10 16 0.01 0.13
2:54 pm 14:54 Cloudy 27 -2.8 17 -8.3 66 66 NNW 23 37 29.88 1012 10 16 0.01 0.13
3:54 pm 15:54 Cloudy 26 -3.3 13 -10.6 57 57 NNW 20 31 29.93 1014 10 16 0.00 0.00
4:54 pm 16:54 Cloudy 26 -3.3 14 -10 60 60 NW 18 30 29.97 1015 10 16 0.00 0.00
5:54 pm 17:54 Clear 25 -3.9 13 -10.6 60 60 NW 13 20 30.02 1017 10 16 0.00 0.00
6:54 pm 18:54 Clear 25 -3.9 12 -11.1 57 57 NW 14 22 30.05 1018 10 16 0.00 0.00
7:54 pm 19:54 Clear 25 -3.9 12 -11.1 57 57 WNW 13 20 30.08 1019 10 16 0.00 0.00
8:54 pm 20:54 Clear 25 -3.9 12 -11.1 57 57 WNW 12 19 30.11 1020 10 16 0.00 0.00
9:54 pm 21:54 Clear 23 -5 11 -11.7 59 59 WNW 9 15 30.14 1021 10 16 0.00 0.00
10:54 pm 22:54 Clear 22 -5.6 10 -12.2 60 60 WNW 10 17 30.16 1022 10 16 0.00 0.00
11:54 pm 23:54 Clear 21 -6.1 9 -12.8 59 59 WNW 9 15 30.19 1023 10 16 0.00 0.00

Powered by AerisWeather